TimeCDT,TemperatureF,Dew PointF,Humidity,Sea Level PressureIn,VisibilityMPH,Wind Direction,Wind SpeedMPH,Gust SpeedMPH,PrecipitationIn,Events,Conditions,WindDirDegrees,DateUTC
12:15 AM,45.0,45.0,100,29.83,10.0,West,6.9,-,N/A,,Overcast,260,2013-10-07 05:15:00
12:35 AM,44.1,44.1,100,29.84,10.0,West,5.8,-,N/A,,Scattered Clouds,260,2013-10-07 05:35:00
12:55 AM,44.2,44.2,100,29.84,10.0,WSW,6.9,-,N/A,,Mostly Cloudy,250,2013-10-07 05:55:00
1:15 AM,44.6,44.6,100,29.85,10.0,WSW,5.8,-,N/A,,Mostly Cloudy,250,2013-10-07 06:15:00
1:35 AM,44.2,44.2,100,29.86,10.0,West,5.8,-,N/A,,Mostly Cloudy,260,2013-10-07 06:35:00
1:55 AM,45.0,45.0,100,29.86,10.0,West,6.9,-,N/A,,Overcast,270,2013-10-07 06:55:00
2:15 AM,45.5,45.5,100,29.86,10.0,West,6.9,-,N/A,,Overcast,270,2013-10-07 07:15:00
2:35 AM,45.0,45.0,100,29.86,10.0,WSW,3.5,-,N/A,,Scattered Clouds,250,2013-10-07 07:35:00
2:55 AM,43.9,43.9,100,29.86,10.0,West,6.9,-,N/A,,Clear,260,2013-10-07 07:55:00
3:15 AM,45.7,45.7,100,29.86,10.0,WSW,6.9,-,N/A,,Mostly Cloudy,250,2013-10-07 08:15:00
3:35 AM,45.5,45.5,100,29.86,10.0,WSW,6.9,-,N/A,,Mostly Cloudy,250,2013-10-07 08:35:00
3:55 AM,46.4,46.4,100,29.87,10.0,West,6.9,-,N/A,,Overcast,260,2013-10-07 08:55:00
4:15 AM,47.3,47.3,100,29.88,10.0,West,8.1,-,N/A,,Overcast,260,2013-10-07 09:15:00
4:35 AM,47.8,47.8,100,29.89,5.0,West,9.2,-,N/A,,Overcast,260,2013-10-07 09:35:00
4:55 AM,47.8,47.8,100,29.89,5.0,WSW,6.9,-,N/A,,Overcast,250,2013-10-07 09:55:00
5:15 AM,48.0,48.0,100,29.89,10.0,WSW,8.1,-,N/A,,Overcast,250,2013-10-07 10:15:00
5:35 AM,48.4,48.4,100,29.90,7.0,WSW,5.8,-,N/A,,Overcast,240,2013-10-07 10:35:00
5:55 AM,48.7,48.7,100,29.91,5.0,WSW,5.8,-,N/A,Rain,Light Rain,250,2013-10-07 10:55:00
6:15 AM,49.1,49.1,100,29.91,10.0,West,9.2,-,N/A,,Overcast,270,2013-10-07 11:15:00
6:35 AM,49.3,49.1,99,29.93,10.0,WNW,11.5,-,N/A,,Overcast,290,2013-10-07 11:35:00
6:55 AM,49.1,47.5,94,29.93,10.0,WNW,10.4,16.1,N/A,,Overcast,290,2013-10-07 11:55:00
7:15 AM,48.2,46.4,93,29.94,10.0,WNW,8.1,-,N/A,,Overcast,300,2013-10-07 12:15:00
7:35 AM,47.3,46.6,97,29.95,10.0,West,5.8,-,N/A,,Mostly Cloudy,280,2013-10-07 12:35:00
7:55 AM,47.8,46.8,96,29.96,10.0,West,6.9,-,N/A,,Scattered Clouds,280,2013-10-07 12:55:00
8:15 AM,48.7,47.7,96,29.97,10.0,West,9.2,-,N/A,,Clear,270,2013-10-07 13:15:00
8:35 AM,49.5,48.0,95,29.98,10.0,West,10.4,-,N/A,,Clear,270,2013-10-07 13:35:00
8:55 AM,50.2,48.4,94,29.99,10.0,WNW,11.5,-,N/A,,Mostly Cloudy,290,2013-10-07 13:55:00
9:15 AM,52.0,48.9,89,30.00,10.0,West,10.4,-,N/A,,Scattered Clouds,280,2013-10-07 14:15:00
9:35 AM,52.9,49.1,87,30.01,10.0,WNW,8.1,-,N/A,,Scattered Clouds,290,2013-10-07 14:35:00
9:55 AM,54.1,49.1,83,30.02,10.0,WNW,6.9,-,N/A,,Clear,290,2013-10-07 14:55:00
10:15 AM,55.6,49.5,80,30.02,10.0,West,8.1,-,N/A,,Clear,280,2013-10-07 15:15:00
10:35 AM,57.4,48.9,73,30.02,10.0,WNW,6.9,-,N/A,,Clear,300,2013-10-07 15:35:00
10:55 AM,58.5,48.4,69,30.02,10.0,West,3.5,-,N/A,,Clear,270,2013-10-07 15:55:00
11:15 AM,60.3,47.3,62,30.02,10.0,WNW,5.8,-,N/A,,Clear,290,2013-10-07 16:15:00
11:35 AM,61.7,48.6,62,30.03,10.0,West,6.9,-,N/A,,Clear,260,2013-10-07 16:35:00
11:55 AM,63.3,48.0,57,30.03,10.0,West,8.1,-,N/A,,Clear,260,2013-10-07 16:55:00
12:15 PM,64.0,48.2,56,30.04,10.0,West,5.8,-,N/A,,Clear,270,2013-10-07 17:15:00
12:35 PM,64.9,47.1,52,30.03,10.0,WSW,9.2,-,N/A,,Clear,240,2013-10-07 17:35:00
12:55 PM,65.7,46.0,49,30.03,10.0,West,6.9,-,N/A,,Clear,280,2013-10-07 17:55:00
1:15 PM,66.2,46.9,50,30.03,10.0,WSW,6.9,-,N/A,,Clear,250,2013-10-07 18:15:00
1:35 PM,66.7,45.7,47,30.03,10.0,West,11.5,17.3,N/A,,Clear,270,2013-10-07 18:35:00
1:55 PM,68.0,46.9,47,30.02,10.0,West,10.4,-,N/A,,Clear,270,2013-10-07 18:55:00
2:15 PM,67.6,46.8,47,30.02,10.0,WSW,6.9,17.3,N/A,,Clear,240,2013-10-07 19:15:00
2:35 PM,68.2,47.1,47,30.02,10.0,West,11.5,18.4,N/A,,Clear,260,2013-10-07 19:35:00
2:55 PM,68.7,47.5,47,30.02,10.0,SW,11.5,-,N/A,,Clear,230,2013-10-07 19:55:00
3:15 PM,69.1,46.4,44,30.01,10.0,SW,11.5,18.4,N/A,,Clear,230,2013-10-07 20:15:00
3:35 PM,69.1,47.5,46,30.01,10.0,SW,10.4,-,N/A,,Clear,230,2013-10-07 20:35:00
3:55 PM,68.2,46.0,45,30.01,10.0,WSW,11.5,19.6,N/A,,Clear,240,2013-10-07 20:55:00
4:15 PM,69.3,46.4,44,30.01,10.0,WSW,11.5,-,N/A,,Clear,250,2013-10-07 21:15:00
4:35 PM,69.6,46.2,43,30.01,10.0,WSW,11.5,17.3,N/A,,Clear,240,2013-10-07 21:35:00
4:55 PM,69.1,45.7,43,30.01,10.0,WSW,10.4,17.3,N/A,,Clear,240,2013-10-07 21:55:00
5:15 PM,69.1,45.1,42,30.01,10.0,WSW,10.4,19.6,N/A,,Clear,240,2013-10-07 22:15:00
5:35 PM,68.4,45.3,44,30.01,10.0,WSW,10.4,-,N/A,,Clear,240,2013-10-07 22:35:00
5:55 PM,67.8,45.3,44,30.01,10.0,SW,8.1,-,N/A,,Clear,230,2013-10-07 22:55:00
6:15 PM,66.2,45.5,47,30.02,10.0,SW,6.9,-,N/A,,Clear,230,2013-10-07 23:15:00
6:35 PM,64.4,45.5,50,30.03,10.0,SW,5.8,-,N/A,,Clear,230,2013-10-07 23:35:00
6:55 PM,62.1,45.7,55,30.03,10.0,SW,4.6,-,N/A,,Clear,230,2013-10-07 23:55:00
7:15 PM,60.8,45.5,57,30.03,10.0,SW,4.6,-,N/A,,Clear,230,2013-10-08 00:15:00
7:35 PM,59.9,45.9,60,30.03,10.0,SW,3.5,-,N/A,,Clear,220,2013-10-08 00:35:00
7:55 PM,58.1,45.7,63,30.03,10.0,SSW,3.5,-,N/A,,Clear,210,2013-10-08 00:55:00
8:15 PM,55.2,46.9,74,30.04,10.0,SSW,4.6,-,N/A,,Clear,200,2013-10-08 01:15:00
8:35 PM,55.4,46.0,71,30.05,10.0,SSW,4.6,-,N/A,,Clear,210,2013-10-08 01:35:00
8:55 PM,54.9,46.0,72,30.06,10.0,SSW,5.8,-,N/A,,Clear,200,2013-10-08 01:55:00
9:15 PM,54.1,46.0,74,30.07,10.0,SSW,5.8,-,N/A,,Clear,210,2013-10-08 02:15:00
9:35 PM,53.6,46.0,76,30.07,10.0,SSW,5.8,-,N/A,,Clear,210,2013-10-08 02:35:00
9:55 PM,53.8,46.2,76,30.08,10.0,South,5.8,-,N/A,,Clear,190,2013-10-08 02:55:00
10:15 PM,51.8,45.9,80,30.09,10.0,SW,5.8,-,N/A,,Clear,220,2013-10-08 03:15:00
10:35 PM,51.8,45.9,80,30.09,10.0,SSW,5.8,-,N/A,,Clear,200,2013-10-08 03:35:00
10:55 PM,51.3,45.7,81,30.09,10.0,South,4.6,-,N/A,,Clear,190,2013-10-08 03:55:00
11:15 PM,51.3,45.7,81,30.09,10.0,SSW,5.8,-,N/A,,Clear,210,2013-10-08 04:15:00
11:35 PM,51.3,45.7,81,30.09,10.0,SSW,4.6,-,N/A,,Clear,210,2013-10-08 04:35:00
11:55 PM,51.1,45.7,82,30.10,10.0,SSW,4.6,-,N/A,,Clear,200,2013-10-08 04:55:00